Location: Newark
(49.8348°N, 24.0280°E)
Time: 21:03:00
(UTC+00:00)

Explorer 7 - Pass Details

Date: 19 January 2020
Orbit: 485 x 679 km, 50.3° (Epoch: 26 February)

Event Time Altitude Azimuth Distance (km) Brightness Sun altitude
Rises 23:49:34 0° 235° (SW) 2,540 - -56.9°
Reaches altitude 10° 23:51:45 10° 230° (SW) 1,665 - -56.7°
Maximum altitude 23:55:22 48° 155° (SSE) 650 - -56.4°
Drops below altitude 10° 23:59:06 10° 80° (E) 1,715 - -56.0°
Sets 00:01:23 0° 75° (ENE) 2,627 - -55.8°
